TimeEDT,TemperatureF,Dew PointF,Humidity,Sea Level PressureIn,VisibilityMPH,Wind Direction,Wind SpeedMPH,Gust SpeedMPH,PrecipitationIn,Events,Conditions,WindDirDegrees,DateUTC
12:15 AM,71.6,68.0,88,30.32,7.0,SSW,5.8,-,N/A,,Clear,210,2013-07-19 04:15:00
12:35 AM,71.6,69.8,94,30.32,7.0,SSW,5.8,-,N/A,,Clear,200,2013-07-19 04:35:00
12:55 AM,71.6,69.8,94,30.31,7.0,SSW,6.9,-,N/A,,Clear,200,2013-07-19 04:55:00
1:15 AM,71.6,69.8,94,30.31,7.0,WSW,5.8,-,N/A,,Clear,240,2013-07-19 05:15:00
1:35 AM,71.6,69.8,94,30.30,7.0,SSW,4.6,-,N/A,,Clear,210,2013-07-19 05:35:00
1:55 AM,69.8,68.0,94,30.30,5.0,SW,6.9,-,N/A,,Clear,230,2013-07-19 05:55:00
2:15 AM,69.8,69.8,100,30.30,7.0,WSW,8.1,-,N/A,,Clear,240,2013-07-19 06:15:00
2:35 AM,69.8,68.0,94,30.29,5.0,SW,5.8,-,N/A,,Clear,230,2013-07-19 06:35:00
2:55 AM,69.8,68.0,94,30.29,5.0,WSW,8.1,-,N/A,,Clear,250,2013-07-19 06:55:00
3:15 AM,69.8,69.8,100,30.28,5.0,WSW,9.2,-,N/A,,Clear,250,2013-07-19 07:15:00
3:35 AM,69.8,69.8,100,30.28,2.5,West,10.4,-,N/A,,Clear,260,2013-07-19 07:35:00
3:55 AM,69.8,69.8,100,30.28,1.5,West,10.4,-,N/A,,Mist,260,2013-07-19 07:55:00
4:15 AM,69.8,69.8,100,30.28,5.0,WSW,10.4,-,N/A,,Clear,250,2013-07-19 08:15:00
4:35 AM,69.8,69.8,100,30.28,4.0,West,9.2,-,N/A,,Clear,260,2013-07-19 08:35:00
4:55 AM,69.8,69.8,100,30.28,5.0,West,10.4,-,N/A,,Clear,260,2013-07-19 08:55:00
5:15 AM,69.8,68.0,94,30.28,7.0,West,9.2,-,N/A,,Clear,260,2013-07-19 09:15:00
5:35 AM,69.8,68.0,94,30.28,7.0,West,10.4,-,N/A,,Clear,270,2013-07-19 09:35:00
5:55 AM,69.8,68.0,94,30.28,7.0,West,9.2,-,N/A,,Clear,260,2013-07-19 09:55:00
6:15 AM,69.8,68.0,94,30.27,7.0,West,9.2,-,N/A,,Clear,270,2013-07-19 10:15:00
6:35 AM,69.8,68.0,94,30.27,5.0,West,9.2,-,N/A,,Clear,270,2013-07-19 10:35:00
6:55 AM,69.8,69.8,100,30.27,4.0,West,9.2,-,N/A,,Clear,260,2013-07-19 10:55:00
7:15 AM,69.8,69.8,100,30.27,4.0,West,11.5,-,N/A,,Clear,270,2013-07-19 11:15:00
7:35 AM,69.8,69.8,100,30.27,2.5,West,9.2,-,N/A,,Clear,270,2013-07-19 11:35:00
7:55 AM,71.6,69.8,94,30.28,2.5,West,10.4,-,N/A,,Clear,270,2013-07-19 11:55:00
8:15 AM,71.6,69.8,94,30.28,5.0,West,6.9,-,N/A,,Clear,270,2013-07-19 12:15:00
8:35 AM,71.6,69.8,94,30.28,5.0,West,6.9,-,N/A,,Clear,280,2013-07-19 12:35:00
8:55 AM,73.4,69.8,88,30.28,7.0,West,9.2,-,N/A,,Clear,280,2013-07-19 12:55:00
9:15 AM,73.4,69.8,88,30.28,7.0,West,9.2,-,N/A,,Clear,270,2013-07-19 13:15:00
9:35 AM,73.4,69.8,88,30.29,7.0,West,8.1,-,N/A,,Clear,280,2013-07-19 13:35:00
9:55 AM,75.2,69.8,83,30.28,10.0,WNW,6.9,-,N/A,,Clear,290,2013-07-19 13:55:00
10:15 AM,75.2,69.8,83,30.28,10.0,WNW,6.9,-,N/A,,Clear,290,2013-07-19 14:15:00
10:35 AM,75.2,69.8,83,30.28,10.0,West,5.8,-,N/A,,Clear,280,2013-07-19 14:35:00
10:55 AM,75.2,69.8,83,30.28,10.0,West,8.1,-,N/A,,Clear,270,2013-07-19 14:55:00
11:15 AM,75.2,71.6,89,30.28,10.0,West,6.9,-,N/A,,Clear,280,2013-07-19 15:15:00
11:35 AM,77.0,69.8,78,30.28,10.0,WSW,4.6,-,N/A,,Scattered Clouds,250,2013-07-19 15:35:00
11:55 AM,78.8,71.6,78,30.28,10.0,West,3.5,-,N/A,,Scattered Clouds,260,2013-07-19 15:55:00
12:15 PM,78.8,69.8,74,30.27,10.0,West,6.9,-,N/A,,Scattered Clouds,280,2013-07-19 16:15:00
12:35 PM,77.0,69.8,78,30.27,10.0,West,8.1,-,N/A,,Scattered Clouds,260,2013-07-19 16:35:00
12:55 PM,80.6,69.8,70,30.27,10.0,SW,8.1,-,N/A,,Scattered Clouds,230,2013-07-19 16:55:00
1:15 PM,80.6,69.8,70,30.26,10.0,West,8.1,-,N/A,,Clear,260,2013-07-19 17:15:00
1:35 PM,78.8,69.8,74,30.25,10.0,SW,5.8,-,N/A,,Scattered Clouds,230,2013-07-19 17:35:00
1:55 PM,80.6,69.8,70,30.24,10.0,WSW,9.2,-,N/A,,Scattered Clouds,240,2013-07-19 17:55:00
2:15 PM,80.6,69.8,70,30.23,10.0,WSW,10.4,16.1,N/A,,Scattered Clouds,240,2013-07-19 18:15:00
2:35 PM,80.6,68.0,65,30.22,10.0,West,10.4,-,N/A,,Scattered Clouds,260,2013-07-19 18:35:00
2:55 PM,78.8,68.0,69,30.22,10.0,SW,8.1,-,N/A,,Scattered Clouds,220,2013-07-19 18:55:00
3:15 PM,78.8,69.8,74,30.22,10.0,South,6.9,-,N/A,Thunderstorm,Scattered Clouds,180,2013-07-19 19:15:00
3:35 PM,75.2,69.8,83,30.22,10.0,South,6.9,-,N/A,,Mostly Cloudy,180,2013-07-19 19:35:00
3:55 PM,75.2,69.8,83,30.22,10.0,West,6.9,-,N/A,,Mostly Cloudy,260,2013-07-19 19:55:00
4:15 PM,73.4,69.8,88,30.21,10.0,West,6.9,-,N/A,Thunderstorm,Thunderstorm,280,2013-07-19 20:15:00
4:35 PM,73.4,69.8,88,30.21,10.0,WNW,6.9,-,N/A,Rain-Thunderstorm,Light Thunderstorms and Rain,300,2013-07-19 20:35:00
4:55 PM,73.4,69.8,88,30.22,10.0,NNW,5.8,-,N/A,Thunderstorm,Clear,330,2013-07-19 20:55:00
5:15 PM,73.4,69.8,88,30.20,10.0,NE,4.6,-,N/A,Thunderstorm,Thunderstorm,50,2013-07-19 21:15:00
5:35 PM,71.6,66.2,83,30.20,10.0,ENE,3.5,-,N/A,Thunderstorm,Mostly Cloudy,60,2013-07-19 21:35:00
5:55 PM,73.4,68.0,83,30.21,10.0,Calm,Calm,-,N/A,,Scattered Clouds,0,2013-07-19 21:55:00
6:15 PM,73.4,68.0,83,30.20,10.0,Calm,Calm,-,N/A,,Clear,0,2013-07-19 22:15:00
6:35 PM,73.4,69.8,88,30.21,10.0,Calm,Calm,-,N/A,Thunderstorm,Clear,0,2013-07-19 22:35:00
6:55 PM,73.4,69.8,88,30.20,10.0,WNW,3.5,-,N/A,,Clear,290,2013-07-19 22:55:00
7:15 PM,71.6,68.0,88,30.20,10.0,WNW,5.8,-,N/A,,Clear,290,2013-07-19 23:15:00
7:35 PM,71.6,66.2,83,30.19,10.0,West,5.8,-,N/A,,Clear,260,2013-07-19 23:35:00
7:55 PM,71.6,69.8,94,30.18,10.0,SW,5.8,-,N/A,,Clear,220,2013-07-19 23:55:00
8:15 PM,71.6,68.0,88,30.19,10.0,SW,5.8,-,N/A,,Clear,220,2013-07-20 00:15:00
8:35 PM,69.8,68.0,94,30.19,10.0,SW,5.8,-,N/A,,Clear,230,2013-07-20 00:35:00
8:55 PM,69.8,68.0,94,30.20,7.0,WSW,6.9,-,N/A,,Clear,250,2013-07-20 00:55:00
9:15 PM,69.8,69.8,100,30.21,7.0,West,8.1,-,N/A,,Clear,270,2013-07-20 01:15:00
9:35 PM,69.8,69.8,100,30.21,4.0,West,8.1,-,N/A,,Clear,260,2013-07-20 01:35:00
9:55 PM,69.8,68.0,94,30.21,10.0,West,9.2,-,N/A,,Clear,260,2013-07-20 01:55:00
10:15 PM,71.6,69.8,94,30.22,10.0,WSW,10.4,-,N/A,,Scattered Clouds,240,2013-07-20 02:15:00
10:35 PM,69.8,69.8,100,30.21,7.0,West,9.2,-,N/A,,Overcast,260,2013-07-20 02:35:00
10:55 PM,69.8,69.8,100,30.20,2.5,West,11.5,-,N/A,,Mostly Cloudy,260,2013-07-20 02:55:00
11:15 PM,69.8,68.0,94,30.19,7.0,West,11.5,-,N/A,,Scattered Clouds,260,2013-07-20 03:15:00
11:35 PM,68.0,66.2,94,30.18,10.0,WSW,15.0,-,N/A,,Clear,250,2013-07-20 03:35:00
11:55 PM,68.0,66.2,94,30.17,10.0,WSW,15.0,-,N/A,,Clear,250,2013-07-20 03:55:00